| time (UTC) | temp F | wind direction | speed MPH | gust MPH | rain 1hr in | rain 24hr in | rain mn in | humidity % | barometer mb |
| 20260831201600 | 80 | 44 | 10.0 | 16.0 | 0.00 | 0.00 | 0.00 | 24 | 1010.0 |
| 20260831200058 | 79 | 17 | 7.0 | 16.0 | 0.00 | 0.00 | 0.00 | 25 | 1010.3 |
| 20260831194632 | 79 | 49 | 8.0 | 14.0 | 0.00 | 0.00 | 0.00 | 25 | 1010.5 |
| 20260831193053 | 79 | 49 | 8.0 | 13.0 | 0.00 | 0.00 | 0.00 | 26 | 1010.5 |
| 20260831191548 | 78 | 316 | 3.0 | 11.0 | 0.00 | 0.00 | 0.00 | 26 | 1010.9 |
| 20260831190059 | 77 | 30 | 6.0 | 10.0 | 0.00 | 0.00 | 0.00 | 27 | 1011.3 |
| 20260831184541 | 76 | 322 | 2.0 | 8.0 | 0.00 | 0.00 | 0.00 | 27 | 1011.6 |
| 20260831183037 | 75 | 39 | 3.0 | 8.0 | 0.00 | 0.00 | 0.00 | 28 | 1011.9 |
| 20260831181538 | 73 | 266 | 0.0 | 6.0 | 0.00 | 0.00 | 0.00 | 30 | 1012.1 |
| 20260831180028 | 72 | 16 | 3.0 | 8.0 | 0.00 | 0.00 | 0.00 | 30 | 1012.3 |
| 20260831174528 | 71 | 15 | 3.0 | 5.0 | 0.00 | 0.00 | 0.00 | 32 | 1012.6 |
| 20260831173022 | 70 | 29 | 3.0 | 6.0 | 0.00 | 0.00 | 0.00 | 32 | 1012.7 |
| 20260831171518 | 69 | 306 | 2.0 | 5.0 | 0.00 | 0.00 | 0.00 | 34 | 1012.9 |
| 20260831170013 | 66 | 219 | 1.0 | 4.0 | 0.00 | 0.00 | 0.00 | 37 | 1012.9 |
| 20260831164513 | 65 | 305 | 0.0 | 4.0 | 0.00 | 0.00 | 0.00 | 39 | 1013.0 |
| 20260831163007 | 64 | 319 | 2.0 | 4.0 | 0.00 | 0.00 | 0.00 | 40 | 1013.1 |
| 20260831161503 | 62 | 43 | 0.0 | 4.0 | 0.00 | 0.00 | 0.00 | 44 | 1013.4 |
| 20260831160107 | 60 | 5 | 1.0 | 4.0 | 0.00 | 0.00 | 0.00 | 47 | 1013.5 |
| 20260831154628 | 59 | 330 | 1.0 | 2.0 | 0.00 | 0.00 | 0.00 | 48 | 1013.5 |
| 20260831153051 | 57 | 276 | 1.0 | 3.0 | 0.00 | 0.00 | 0.00 | 51 | 1013.6 |
| 20260831151547 | 56 | 154 | 0.0 | 2.0 | 0.00 | 0.00 | 0.00 | 56 | 1013.8 |
| 20260831150046 | 54 | 148 | 0.0 | 0.0 | 0.00 | 0.00 | 0.00 | 56 | 1013.8 |
| 20260831144541 | 52 | 148 | 0.0 | 0.0 | 0.00 | 0.00 | 0.00 | 59 | 1013.8 |
| 20260831143103 | 52 | 148 | 0.0 | 0.0 | 0.00 | 0.00 | 0.00 | 59 | 1013.7 |
| 20260831141552 | 48 | 148 | 0.0 | 1.0 | 0.00 | 0.00 | 0.00 | 62 | 1013.5 |
| 20260831140044 | 48 | 148 | 0.0 | 1.0 | 0.00 | 0.00 | 0.00 | 65 | 1013.5 |
| 20260831134538 | 46 | 148 | 0.0 | 2.0 | 0.00 | 0.00 | 0.00 | 68 | 1013.5 |
| 20260831133037 | 45 | 148 | 1.0 | 1.0 | 0.00 | 0.00 | 0.00 | 68 | 1013.4 |
| 20260831131536 | 44 | 148 | 0.0 | 2.0 | 0.00 | 0.00 | 0.00 | 70 | 1013.4 |
| 20260831130037 | 44 | 148 | 0.0 | 0.0 | 0.00 | 0.00 | 0.00 | 68 | 1013.3 |
| 20260831124532 | 47 | 148 | 0.0 | 0.0 | 0.00 | 0.00 | 0.00 | 66 | 1013.2 |
| 20260831123030 | 47 | 148 | 0.0 | 1.0 | 0.00 | 0.00 | 0.00 | 64 | 1013.3 |
| 20260831121530 | 47 | 148 | 1.0 | 2.0 | 0.00 | 0.00 | 0.00 | 65 | 1013.4 |
| 20260831120032 | 46 | 148 | 2.0 | 3.0 | 0.00 | 0.00 | 0.00 | 67 | 1013.4 |
| 20260831114534 | 47 | 148 | 0.0 | 0.0 | 0.00 | 0.00 | 0.00 | 65 | 1013.4 |
| 20260831113029 | 46 | 148 | 1.0 | 1.0 | 0.00 | 0.00 | 0.00 | 67 | 1013.3 |
| 20260831111528 | 46 | 148 | 0.0 | 1.0 | 0.00 | 0.00 | 0.00 | 63 | 1013.4 |
| 20260831110025 | 45 | 148 | 0.0 | 2.0 | 0.00 | 0.00 | 0.00 | 66 | 1013.4 |
| 20260831104522 | 46 | 148 | 0.0 | 4.0 | 0.00 | 0.00 | 0.00 | 66 | 1013.4 |
| 20260831103021 | 46 | 148 | 2.0 | 3.0 | 0.00 | 0.00 | 0.00 | 64 | 1013.5 |
| 20260831101524 | 47 | 148 | 2.0 | 3.0 | 0.00 | 0.00 | 0.00 | 63 | 1013.5 |
| 20260831100016 | 46 | 148 | 1.0 | 2.0 | 0.00 | 0.00 | 0.00 | 64 | 1013.7 |
| 20260831094513 | 47 | 148 | 0.0 | 0.0 | 0.00 | 0.00 | 0.00 | 66 | 1013.6 |
| 20260831093013 | 48 | 148 | 0.0 | 0.0 | 0.00 | 0.00 | 0.00 | 60 | 1013.8 |
| 20260831091508 | 49 | 148 | 0.0 | 1.0 | 0.00 | 0.00 | 0.00 | 61 | 1013.9 |
| 20260831090006 | 48 | 149 | 0.0 | 2.0 | 0.00 | 0.00 | 0.00 | 60 | 1014.2 |
| 20260831084505 | 47 | 148 | 2.0 | 4.0 | 0.00 | 0.00 | 0.00 | 59 | 1014.3 |
| 20260831083007 | 49 | 149 | 1.0 | 2.0 | 0.00 | 0.00 | 0.00 | 60 | 1014.2 |
| 20260831081601 | 49 | 148 | 2.0 | 4.0 | 0.00 | 0.00 | 0.00 | 58 | 1014.1 |
| 20260831074558 | 51 | 125 | 0.0 | 0.0 | 0.00 | 0.00 | 0.00 | 58 | 1014.2 |
| 20260831073102 | 52 | 125 | 1.0 | 2.0 | 0.00 | 0.00 | 0.00 | 58 | 1014.2 |
| 20260831071553 | 52 | 125 | 1.0 | 1.0 | 0.00 | 0.00 | 0.00 | 57 | 1014.4 |
| 20260831070050 | 51 | 125 | 0.0 | 1.0 | 0.00 | 0.00 | 0.00 | 59 | 1014.3 |
| 20260831064555 | 51 | 125 | 0.0 | 0.0 | 0.00 | 0.00 | 0.00 | 57 | 1014.3 |
| 20260831063048 | 52 | 125 | 1.0 | 2.0 | 0.00 | 0.00 | 0.00 | 55 | 1014.4 |
| 20260831061558 | 53 | 125 | 0.0 | 2.0 | 0.00 | 0.00 | 0.00 | 54 | 1014.3 |
| 20260831060059 | 54 | 125 | 0.0 | 3.0 | 0.00 | 0.00 | 0.00 | 52 | 1014.4 |
| 20260831054547 | 54 | 126 | 0.0 | 2.0 | 0.00 | 0.00 | 0.00 | 52 | 1014.4 |
| 20260831053048 | 54 | 148 | 0.0 | 1.0 | 0.00 | 0.00 | 0.00 | 51 | 1014.3 |
| 20260831051555 | 55 | 160 | 1.0 | 2.0 | 0.00 | 0.00 | 0.00 | 51 | 1014.3 |
| 20260831050045 | 55 | 263 | 2.0 | 3.0 | 0.00 | 0.00 | 0.00 | 52 | 1014.4 |
| 20260831044547 | 56 | 142 | 0.0 | 3.0 | 0.00 | 0.00 | 0.00 | 49 | 1014.3 |
| 20260831043048 | 55 | 142 | 0.0 | 2.0 | 0.00 | 0.00 | 0.00 | 51 | 1014.5 |
| 20260831041543 | 57 | 158 | 0.0 | 1.0 | 0.00 | 0.00 | 0.00 | 48 | 1014.4 |
| 20260831040042 | 57 | 158 | 0.0 | 2.0 | 0.00 | 0.00 | 0.00 | 47 | 1014.4 |
| 20260831034544 | 59 | 158 | 0.0 | 2.0 | 0.00 | 0.00 | 0.00 | 46 | 1014.3 |
| 20260831033042 | 59 | 132 | 1.0 | 3.0 | 0.00 | 0.00 | 0.00 | 43 | 1014.2 |
| 20260831031545 | 61 | 110 | 1.0 | 3.0 | 0.00 | 0.00 | 0.00 | 45 | 1014.2 |
| 20260831030047 | 65 | 115 | 1.0 | 2.0 | 0.00 | 0.00 | 0.00 | 39 | 1014.1 |
| 20260831024607 | 69 | 309 | 0.0 | 2.0 | 0.00 | 0.00 | 0.00 | 36 | 1013.9 |
| 20260831023039 | 70 | 298 | 1.0 | 3.0 | 0.00 | 0.00 | 0.00 | 34 | 1013.8 |
| 20260831021539 | 71 | 305 | 1.0 | 4.0 | 0.00 | 0.00 | 0.00 | 33 | 1013.7 |
| 20260831020039 | 73 | 312 | 1.0 | 3.0 | 0.00 | 0.00 | 0.00 | 32 | 1013.7 |
| 20260831014540 | 74 | 312 | 2.0 | 5.0 | 0.00 | 0.00 | 0.00 | 31 | 1013.6 |
| 20260831013042 | 74 | 314 | 4.0 | 6.0 | 0.00 | 0.00 | 0.00 | 31 | 1013.8 |
| 20260831011537 | 75 | 313 | 1.0 | 5.0 | 0.00 | 0.00 | 0.00 | 29 | 1013.8 |
| 20260831010035 | 75 | 302 | 2.0 | 7.0 | 0.00 | 0.00 | 0.00 | 31 | 1013.8 |
| 20260831004535 | 75 | 342 | 2.0 | 7.0 | 0.00 | 0.00 | 0.00 | 30 | 1013.9 |
| 20260831003034 | 75 | 336 | 2.0 | 7.0 | 0.00 | 0.00 | 0.00 | 30 | 1014.0 |
| 20260831001532 | 75 | 319 | 4.0 | 9.0 | 0.00 | 0.00 | 0.00 | 30 | 1014.1 |
| 20260831000030 | 75 | 298 | 6.0 | 10.0 | 0.00 | 0.00 | 0.00 | 28 | 1014.2 |
| 20260830234528 | 75 | 292 | 2.0 | 8.0 | 0.00 | 0.00 | 0.00 | 30 | 1014.3 |
| 20260830233027 | 75 | 288 | 5.0 | 10.0 | 0.00 | 0.00 | 0.00 | 29 | 1014.4 |
| 20260830231532 | 75 | 297 | 7.0 | 10.0 | 0.00 | 0.00 | 0.00 | 29 | 1014.5 |
| 20260830230024 | 75 | 250 | 6.0 | 9.0 | 0.00 | 0.00 | 0.00 | 28 | 1014.5 |
| 20260830224527 | 75 | 267 | 2.0 | 12.0 | 0.00 | 0.00 | 0.00 | 28 | 1014.6 |
| 20260830223020 | 75 | 299 | 6.0 | 9.0 | 0.00 | 0.00 | 0.00 | 29 | 1014.8 |
| 20260830221524 | 75 | 17 | 1.0 | 8.0 | 0.00 | 0.00 | 0.00 | 30 | 1014.9 |
| 20260830220014 | 74 | 83 | 1.0 | 7.0 | 0.00 | 0.00 | 0.00 | 30 | 1015.2 |
| 20260830214510 | 74 | 356 | 6.0 | 10.0 | 0.00 | 0.00 | 0.00 | 30 | 1015.4 |
| 20260830213007 | 72 | 44 | 3.0 | 11.0 | 0.00 | 0.00 | 0.00 | 31 | 1015.6 |
| 20260830211507 | 72 | 28 | 3.0 | 9.0 | 0.00 | 0.00 | 0.00 | 32 | 1015.7 |
| 20260830210004 | 72 | 333 | 3.0 | 15.0 | 0.00 | 0.00 | 0.00 | 33 | 1016.0 |
| 20260830204502 | 72 | 285 | 5.0 | 8.0 | 0.00 | 0.00 | 0.00 | 34 | 1016.2 |
| 20260830203118 | 72 | 252 | 0.0 | 12.0 | 0.00 | 0.00 | 0.00 | 34 | 1016.3 |